This is the latest recevied weather packets stored in our database for station/object KD0RIH. If no packets are shown the sender has not sent any weather packets the latest 10 day(s).
| Time | Temp. | Humidity | Pressure | Rain* | Wind** | Luminosity | Snow |
|---|---|---|---|---|---|---|---|
| 1777762652 | 20.56° C | 24% | 1018.2 hPa | 0 mm | - | 239 W/m² | - |
| 1777762350 | 20° C | 25% | 1018.3 hPa | 0 mm | - | 260 W/m² | - |
| 1777762046 | 19.44° C | 28% | 1018.3 hPa | 0 mm | - | 279 W/m² | - |
| 1777761742 | 19.44° C | 25% | 1018.4 hPa | 0 mm | - | 301 W/m² | - |
| 1777761440 | 20.56° C | 24% | 1018.3 hPa | 0 mm | - | 322 W/m² | - |
| 1777761138 | 20.56° C | 24% | 1018.4 hPa | 0 mm | - | 341 W/m² | - |
| 1777760835 | 20° C | 24% | 1018.5 hPa | 0 mm | - | 343 W/m² | - |
| 1777760532 | 21.11° C | 25% | 1018.7 hPa | 0 mm | - | 381 W/m² | - |
| 1777760228 | 20.56° C | 25% | 1018.6 hPa | 0 mm | - | 399 W/m² | - |
| 1777759925 | 21.67° C | 23% | 1018.7 hPa | 0 mm | - | 420 W/m² | - |
| 1777759621 | 22.78° C | 21% | 1018.7 hPa | 0 mm | - | 439 W/m² | - |
| 1777759317 | 21.67° C | 24% | 1018.7 hPa | 0 mm | - | 451 W/m² | - |
| 1777759014 | 21.67° C | 23% | 1018.8 hPa | 0 mm | - | 463 W/m² | - |
| 1777758711 | 20.56° C | 24% | 1018.9 hPa | 0 mm | - | 467 W/m² | - |
| 1777758409 | 19.44° C | 26% | 1018.6 hPa | 0 mm | - | 507 W/m² | - |
| 1777758105 | 21.11° C | 23% | 1018.9 hPa | 0 mm | - | 527 W/m² | - |
| 1777757803 | 22.78° C | 21% | 1019 hPa | 0 mm | - | 538 W/m² | - |
| 1777757500 | 23.89° C | 20% | 1019 hPa | 0 mm | - | 553 W/m² | - |
| 1777757199 | 23.33° C | 22% | 1019 hPa | 0 mm | - | 568 W/m² | - |
| 1777756897 | 22.78° C | 21% | 1019.2 hPa | 0 mm | - | 587 W/m² | - |
| 1777756592 | 22.78° C | 26% | 1019.1 hPa | 0 mm | - | 600 W/m² | - |
| 1777756289 | 22.22° C | 23% | 1019.1 hPa | 0 mm | - | 622 W/m² | - |
| 1777755987 | 21.67° C | 24% | 1019.1 hPa | 0 mm | - | 644 W/m² | - |
| 1777755683 | 21.11° C | 23% | 1019.1 hPa | 0 mm | - | 665 W/m² | - |
| 1777755380 | 22.78° C | 23% | 1019.1 hPa | 0 mm | - | 682 W/m² | - |
* Rain latest hour (hover to see other rain measurements)
** Current wind speed in m/s (hover to see current wind gust speed)